TimeEDT,TemperatureF,Dew PointF,Humidity,Sea Level PressureIn,VisibilityMPH,Wind Direction,Wind SpeedMPH,Gust SpeedMPH,PrecipitationIn,Events,Conditions,WindDirDegrees,DateUTC
12:53 AM,78.1,69.1,74,30.08,10.0,SE,12.7,-,N/A,,Clear,140,2013-05-18 04:53:00
1:53 AM,78.1,69.1,74,30.07,10.0,SE,10.4,-,N/A,,Partly Cloudy,140,2013-05-18 05:53:00
2:18 AM,77.0,68.0,74,30.06,10.0,SE,11.5,-,N/A,,Mostly Cloudy,140,2013-05-18 06:18:00
2:27 AM,77.0,69.1,76,30.06,10.0,SE,12.7,-,N/A,,Partly Cloudy,130,2013-05-18 06:27:00
2:53 AM,75.9,69.1,79,30.06,10.0,SE,10.4,-,N/A,,Partly Cloudy,140,2013-05-18 06:53:00
3:53 AM,75.9,69.1,79,30.05,10.0,SE,10.4,-,N/A,,Clear,140,2013-05-18 07:53:00
4:53 AM,75.0,70.0,84,30.05,10.0,SE,9.2,-,N/A,,Clear,140,2013-05-18 08:53:00
5:53 AM,75.0,70.0,84,30.06,10.0,SE,9.2,-,N/A,,Partly Cloudy,140,2013-05-18 09:53:00
6:11 AM,75.0,70.0,84,30.06,10.0,SE,6.9,-,N/A,,Mostly Cloudy,130,2013-05-18 10:11:00
6:38 AM,75.0,71.1,87,30.07,10.0,SSE,9.2,-,N/A,,Scattered Clouds,160,2013-05-18 10:38:00
6:53 AM,75.0,71.1,87,30.07,10.0,SSE,10.4,-,N/A,,Partly Cloudy,160,2013-05-18 10:53:00
7:03 AM,75.0,71.1,87,30.08,10.0,SSE,9.2,-,N/A,,Partly Cloudy,160,2013-05-18 11:03:00
7:25 AM,75.0,71.1,87,30.08,10.0,SSE,9.2,-,N/A,,Mostly Cloudy,160,2013-05-18 11:25:00
7:37 AM,75.0,71.1,87,30.08,10.0,SSE,8.1,-,N/A,,Mostly Cloudy,160,2013-05-18 11:37:00
7:44 AM,75.0,71.1,87,30.08,10.0,South,9.2,-,N/A,,Scattered Clouds,170,2013-05-18 11:44:00
7:53 AM,75.0,71.1,87,30.08,10.0,South,9.2,-,N/A,,Scattered Clouds,170,2013-05-18 11:53:00
8:53 AM,75.9,71.1,85,30.10,10.0,SSE,6.9,-,N/A,,Clear,160,2013-05-18 12:53:00
9:53 AM,78.1,71.1,79,30.11,10.0,SSE,4.6,-,N/A,,Clear,160,2013-05-18 13:53:00
10:53 AM,80.1,71.1,74,30.11,10.0,SSE,5.8,-,N/A,,Clear,150,2013-05-18 14:53:00
11:53 AM,82.9,72.0,69,30.09,10.0,South,11.5,-,N/A,,Clear,170,2013-05-18 15:53:00
12:53 PM,86.0,71.1,61,30.09,10.0,South,9.2,-,N/A,,Scattered Clouds,180,2013-05-18 16:53:00
1:53 PM,87.1,64.0,46,30.07,10.0,SSW,8.1,-,N/A,,Partly Cloudy,210,2013-05-18 17:53:00
3:53 PM,86.0,62.1,44,30.04,10.0,West,12.7,17.3,N/A,,Clear,260,2013-05-18 19:53:00
4:53 PM,86.0,57.9,38,30.02,10.0,West,10.4,-,N/A,,Clear,280,2013-05-18 20:53:00
5:53 PM,84.9,61.0,44,30.01,10.0,West,11.5,-,N/A,,Clear,280,2013-05-18 21:53:00
6:53 PM,84.0,64.0,51,30.02,10.0,West,11.5,-,N/A,,Clear,280,2013-05-18 22:53:00
7:53 PM,82.0,62.1,51,30.02,10.0,WNW,8.1,-,N/A,,Clear,300,2013-05-18 23:53:00
8:53 PM,80.1,66.0,62,30.03,10.0,NNW,6.9,-,N/A,,Clear,340,2013-05-19 00:53:00
9:53 PM,79.0,66.9,66,30.04,10.0,NNW,5.8,-,N/A,,Clear,340,2013-05-19 01:53:00
10:53 PM,78.1,66.9,68,30.06,10.0,NNE,6.9,-,N/A,,Clear,20,2013-05-19 02:53:00